CW0728 Weather Reports


time (UTC)temp
F
wind
direction
speed
knots
gust
knots
rain 1hr
in
rain 24hr
in
rain mn
in
humidity
%
barometer
mb
20260831053042 58 309 0.0 0.0 0.00 0.04 0.00 88 1015.6
20260831051518 58 305 0.0 0.0 0.00 0.04 0.00 87 1015.4
20260831050055 58 305 0.0 0.0 0.00 0.04 0.00 87 1015.4
20260831044539 59 305 0.0 0.0 0.00 0.04 0.00 87 1015.4
20260831043013 60 305 0.0 0.0 0.00 0.04 0.00 86 1015.4
20260831041559 60 305 0.0 0.0 0.00 0.04 0.00 85 1015.3
20260831040024 61 305 0.0 0.0 0.00 0.04 0.04 84 1015.4
20260831034607 62 305 0.0 0.0 0.00 0.04 0.04 82 1015.3
20260831033040 62 311 0.0 0.0 0.01 0.04 0.04 81 1015.0
20260831031519 63 321 0.0 1.7 0.01 0.04 0.04 79 1015.1
20260831030051 63 57 0.0 5.2 0.04 0.04 0.04 78 1015.3
20260831024527 64 86 0.9 7.0 0.04 0.04 0.04 76 1015.6
20260831023012 66 5 0.9 7.0 0.03 0.03 0.03 75 1015.4
20260831021552 68 215 0.0 5.2 0.03 0.03 0.03 73 1015.4
20260831020024 68 310 0.0 0.0 0.00 0.00 0.00 71 1014.3
20260831014502 68 310 0.0 0.0 0.00 0.00 0.00 72 1014.1
20260831013039 69 310 0.0 0.0 0.00 0.00 0.00 72 1013.9
20260831011516 69 310 0.0 0.0 0.00 0.00 0.00 72 1013.7
20260831010054 69 310 0.0 0.0 0.00 0.00 0.00 71 1013.6
20260831004538 70 296 0.0 0.0 0.00 0.00 0.00 70 1013.5
20260831003015 70 296 0.0 0.0 0.00 0.00 0.00 69 1013.3
20260831001550 69 262 0.0 0.0 0.00 0.00 0.00 69 1013.5
20260831000023 70 261 0.0 0.0 0.00 0.00 0.00 71 1013.1
20260830234512 71 261 0.0 0.0 0.00 0.00 0.00 70 1013.0
20260830233049 71 265 0.0 0.0 0.00 0.00 0.00 70 1013.0
20260830231523 72 265 0.0 0.0 0.00 0.00 0.00 68 1013.0
20260830230050 73 265 0.0 0.0 0.00 0.00 0.00 65 1013.0
20260830224536 73 265 0.0 0.0 0.00 0.00 0.00 63 1013.0
20260830223012 73 263 0.0 0.0 0.00 0.00 0.00 62 1013.2
20260830221548 74 263 0.0 0.0 0.00 0.00 0.00 61 1013.2
20260830220023 74 265 0.0 0.0 0.00 0.00 0.00 59 1013.2
20260830214508 74 241 0.0 0.0 0.00 0.00 0.00 58 1013.3
20260830213054 74 263 0.0 0.9 0.00 0.00 0.00 58 1013.4
20260830211544 75 243 0.0 0.0 0.00 0.00 0.00 58 1013.5
20260830210015 75 335 0.0 0.0 0.00 0.00 0.00 59 1013.5
20260830204551 75 282 0.0 0.9 0.00 0.00 0.00 59 1013.5
20260830203043 74 229 0.0 0.0 0.00 0.00 0.00 59 1013.6
20260830201502 74 257 0.0 0.0 0.00 0.00 0.00 60 1013.6
20260830200016 74 280 0.0 0.9 0.00 0.00 0.00 59 1013.9
20260830194521 74 247 0.0 5.2 0.00 0.00 0.00 60 1014.1
20260830193009 74 248 0.0 0.0 0.00 0.00 0.00 61 1014.1
20260830191543 74 234 0.0 0.0 0.00 0.00 0.00 62 1014.2
20260830190026 73 287 0.0 0.0 0.00 0.00 0.00 64 1014.5
20260830184559 72 266 0.0 1.7 0.00 0.00 0.00 65 1014.7
20260830183033 72 243 0.0 0.0 0.00 0.00 0.00 66 1015.0
20260830181518 72 247 0.0 6.1 0.00 0.00 0.00 66 1015.1
20260830180056 72 241 0.0 0.0 0.00 0.00 0.00 65 1015.4
20260830174538 72 249 0.0 0.9 0.00 0.00 0.00 66 1015.5
20260830173010 74 273 0.0 4.3 0.00 0.00 0.00 63 1015.6
20260830171546 76 53 0.0 7.0 0.00 0.00 0.00 58 1015.3
20260830170027 77 304 2.6 7.8 0.00 0.00 0.00 53 1015.5
20260830164506 78 336 0.0 7.0 0.00 0.00 0.00 52 1015.3
20260830163045 78 302 0.0 0.0 0.00 0.00 0.00 53 1015.3
20260830161519 79 307 1.7 7.0 0.00 0.00 0.00 52 1015.4
20260830160058 78 234 0.0 7.8 0.00 0.00 0.00 52 1015.7
20260830154511 79 344 0.0 4.3 0.00 0.00 0.00 52 1015.8
20260830153042 78 262 0.0 0.0 0.00 0.00 0.00 53 1015.8
20260830151525 76 315 0.0 0.0 0.00 0.00 0.00 55 1016.1
20260830150101 75 240 0.0 0.0 0.00 0.00 0.00 58 1016.1
20260830144539 75 203 0.0 0.0 0.00 0.00 0.00 58 1016.3
20260830143028 73 228 0.0 0.0 0.00 0.00 0.00 61 1016.6
20260830141554 72 215 0.0 0.0 0.00 0.00 0.00 62 1016.6
20260830140037 70 248 0.0 0.0 0.00 0.00 0.00 64 1016.6
20260830134510 69 207 0.0 0.0 0.00 0.00 0.00 67 1016.7
20260830133049 67 242 0.0 0.0 0.00 0.00 0.00 68 1016.9
20260830131530 66 259 0.0 6.1 0.00 0.00 0.00 70 1016.8
20260830130048 65 236 0.0 0.0 0.00 0.00 0.00 71 1017.0
20260830124538 64 283 0.0 0.0 0.00 0.00 0.00 74 1017.1
20260830123005 63 265 0.0 0.0 0.00 0.00 0.00 76 1017.2
20260830121541 62 246 0.0 0.0 0.00 0.00 0.00 75 1017.3
20260830120025 62 219 0.0 0.0 0.00 0.00 0.00 76 1017.2
20260830114612 61 265 0.0 0.0 0.00 0.00 0.00 77 1017.5
20260830113034 60 204 0.0 0.0 0.00 0.00 0.00 80 1017.3
20260830111507 59 234 0.0 0.0 0.00 0.00 0.00 83 1017.2
20260830110043 58 222 0.0 0.0 0.00 0.00 0.00 85 1017.1
20260830104527 57 222 0.0 0.0 0.00 0.00 0.00 84 1017.2
20260830103003 57 222 0.0 0.0 0.00 0.00 0.00 84 1017.4
20260830101540 57 222 0.0 0.0 0.00 0.00 0.00 84 1017.5
20260830100030 57 222 0.0 0.0 0.00 0.00 0.00 83 1017.5
20260830094556 57 211 0.0 0.0 0.00 0.00 0.00 84 1017.6
20260830093049 55 288 0.0 0.0 0.00 0.00 0.00 87 1017.7
20260830091505 55 191 0.0 0.0 0.00 0.00 0.00 88 1017.8
20260830090043 55 191 0.0 0.0 0.00 0.00 0.00 88 1017.9
20260830084527 56 191 0.0 0.0 0.00 0.00 0.00 87 1017.8
20260830083003 56 191 0.0 0.0 0.00 0.00 0.00 87 1017.8
20260830081540 56 191 0.0 0.0 0.00 0.00 0.00 87 1017.7
20260830080015 56 167 0.0 0.0 0.00 0.00 0.00 88 1017.7
20260830074556 56 271 0.0 0.0 0.00 0.00 0.00 90 1017.8
20260830073033 56 299 0.0 0.0 0.00 0.00 0.00 90 1017.8
20260830071504 56 299 0.0 0.0 0.00 0.00 0.00 92 1017.8
20260830070042 55 249 0.0 0.0 0.00 0.00 0.00 92 1017.7
20260830064525 55 249 0.0 0.0 0.00 0.00 0.00 92 1017.9
20260830063002 55 249 0.0 0.0 0.00 0.00 0.00 92 1018.2
20260830061539 55 249 0.0 0.0 0.00 0.00 0.00 91 1018.1
20260830060015 55 249 0.0 0.0 0.00 0.00 0.00 91 1018.3
20260830054553 55 249 0.0 0.0 0.00 0.00 0.00 90 1018.3